STARLINK-36144

Last updated on Sun Mar 15 2026 00:02:07 GMT+0000 (Coordinated Universal Time)

1 67829U 26033J 26073.58335648 -.01941744 00000+0 -20943-1 0 9996 2 67829 42.9990 241.7272 0001480 276.8896 164.6181 15.65948439 5456
UTC large
Height (km)
Speed (km/s)
/
Latitude / Longitude
Inclination (degrees)
Orbital Period (minutes)
Azimuth
Elevation
Range (km)
Doppler Factor

Next 0 passes for location: London (51.5072 / 0.1276)

Sorry there are no passes over London.